Regional Weather Roundup
Issued by NWS

Home | Current Version | Previous Version | Text Only | Print | Product List | Glossary On
Versions: 1 2 3 4 5 6 7 8 9 10 11 12 13 14 15 16 17 18 19 20 21 22 23 24 25 26 27 28 29 30 31 32 33 34 35 36 37 38 39 40 41 42 43 44 45 46 47 48 49 50
392
ASUS46 KSTO 232215
RWRCA

NORTHERN AND CENTRAL CA REGIONAL WEATHER ROUNDUP
NATIONAL WEATHER SERVICE SACRAMENTO CA
300 PM PDT MON APR 23 2018

NOTE: FAIR INDICATES FEW OR NO CLOUDS BELOW 12,000 FEET WITH NO
SIGNIFICANT WEATHER AND/OR OBSTRUCTIONS TO VISIBILITY.

CAZ001-003-232300-
NORTHWEST AREA

CITY           SKY/WX    TMP DP  RH WIND       PRES   REMARKS
CRESCENT CITY  SUNNY     62  48  60 N9        30.00S
UKIAH          SUNNY     84  33  16 SE3       29.93F
$$

CAZ006-505>513-232300-
BAY AREA

CITY           SKY/WX    TMP DP  RH WIND       PRES   REMARKS
SANTA ROSA     SUNNY     78  57  48 S12       29.93F
SAN RAFAEL     N/A       78  MM  MM MISG
NAPA           SUNNY     77  58  51 SW14      29.95F
CONCORD        SUNNY     85  45  24 CALM      29.95F
OAKLAND CITY   N/A      MM  MM  MM MISG
OAKLAND        MOSUNNY   68  53  58 W17       29.97F
SAN FRAN CITY  N/A       63  MM  62 MISG
SAN FRAN ARPT  MOSUNNY   69  51  52 W20       29.97S
LIVERMORE      SUNNY     83  51  33 VRB3      29.94F
HAYWARD        SUNNY     75  52  44 W14       29.96F
REDWOOD CITY   N/A       78  MM  46 MISG
MOFFETT ARPT   SUNNY     77  57  50 N14       29.95F
SAN JOSE ARPT  PTSUNNY   83  54  36 NW10      29.94F
$$
CAZ034-037-514>518-232300-
CENTRAL COAST

CITY           SKY/WX    TMP DP  RH WIND       PRES   REMARKS
WATSONVILLE    SUNNY     61  54  77 S12       30.02S
SALINAS        SUNNY     63  52  67 W14       30.01S
MONTEREY       SUNNY     60  51  72 SW8G17    30.02F
SAN LUIS OBISP SUNNY     69  55  60 W9        29.99S
SANTA MARIA    SUNNY     67  54  63 NW12      30.00F
$$
CAZ015-016-232300-
NORTHERN SACRAMENTO VALLEY

CITY           SKY/WX    TMP DP  RH WIND       PRES   REMARKS
REDDING        SUNNY     86  30  13 NW7       29.96F
RED BLUFF      SUNNY     86  37  17 N9        29.97F
OROVILLE       SUNNY     84  43  23 CALM      29.96F
$$
CAZ016>018-232300-
SOUTHERN SACRAMENTO VALLEY

CITY           SKY/WX    TMP DP  RH WIND       PRES   REMARKS
AUBURN         SUNNY     79  48  34 W7        30.00F
LINCOLN        FAIR      81  50  34 NW5       29.94F
MARYSVILLE     SUNNY     83  49  30 NW5       29.95F
SAC INTL ARPT  SUNNY     84  46  26 N5        29.94F
MATHER AIRPORT SUNNY     82  48  30 SW5       29.94F
DOWNTOWN SAC   N/A       85  MM  MM MISG
SAC EXEC ARPT  SUNNY     84  47  27 NW5       29.94F
VACAVILLE      SUNNY     85  42  22 NW5       29.96F
$$
CAZ019>021-232300-
SAN JOAQUIN VALLEY

CITY           SKY/WX    TMP DP  RH WIND       PRES   REMARKS
STOCKTON       SUNNY     88  54  31 NW8       29.93F
MODESTO        SUNNY     86  51  29 VRB7      29.93F
MERCED         SUNNY     85  53  33 N7        29.92F
LEMOORE        MOSUNNY   91  45  20 VRB7      29.90F
FRESNO         PTSUNNY   89  42  19 W3        29.92F
HANFORD        SUNNY     91  48  22 MISG      29.91F
PORTERVILLE    SUNNY     90  45  21 NW8       29.92F
BAKERSFIELD    SUNNY     93  37  14 W12       29.90F
$$
CAZ011-012-071-232300-
NORTHERN MOUNTAINS

CITY           SKY/WX    TMP DP  RH WIND       PRES   REMARKS
YREKA          SUNNY     71  24  17 NW7       30.12F
MOUNT SHASTA   SUNNY     73  25  16 VRB3      30.11F
ALTURAS        SUNNY     67  22  18 NE6       30.19F
$$
CAZ011-012-071-232300-
SIERRA NEVADA MTNS

CITY           SKY/WX    TMP DP  RH WIND       PRES   REMARKS
BLUE CANYON    SUNNY     65  35  33 SW9       30.16F
TRUCKEE        SUNNY     66  14  13 W5        30.19S
TAHOE VLY ARPT MOSUNNY   61  29  29 VRB6      30.19F
MAMMOTH LAKES  FAIR      68  16  13 W16G22    30.19S
$$




USA.gov is the U.S. government's official web portal to all federal, state and local government web resources and services.